Temp
-6 -7 -5 -6 -6 -6 -6 -6 -6 -6 -5 -6 -6 -6 -6 -6 -6 -6 -7 -6 -6 -6 -6 -6 -6 -6 -6 -6 -6 -6 -6 -6 -6
-7 -7 -6 -6 -6 -6 -6 -6 -7 -7 -6 -6 -6 -6 -6 -6 -6 -6 -6 -6 -6 -7 -6 -6 -6 -6 -6 -6 -6 -6 -6 -6 -6
-7 -8 -8 -7 -6 -7 -7 -7 -7 -7 -6 -6 -6 -6 -6 -6 -6 -6 -6 -6 -6 -6 -6 -6 -6 -6 -6 -6 -6 -6 -6 -6 -6
-7 -7 -9 -8 -7 -7 -7 -7 -7 -7 -6 -6 -6 -6 -6 -6 -6 -6 -5 -5 -5 -6 -6 -6 -6 -5 -6 -5 -5 -6 -6 -6 -6
-7 -8 -8 -8 -7 -7 -8 -7 -7 -7 -7 -7 -6 -6 -6 -6 -6 -6 -6 -5 -5 -5 -5 -5 -5 -5 -6 -6 -6 -6 -6 -6 -6
-8 -7 -7 -7 -7 -7 -7 -7 -7 -6 -6 -7 -6 -7 -6 -7 -6 -6 -6 -6 -6 -5 -5 -5 -5 -5 -5 -5 -6 -6 -6 -6 -6
-8 -8 -8 -7 -6 -7 -7 -7 -6 -6 -6 -6 -6 -6 -6 -6 -6 -6 -6 -6 -6 -6 -5 -5 -5 -5 -5 -5 -5 -5 -6 -6 -6
-8 -8 -9 -7 -6 -7 -7 -6 -6 -6 -6 -6 -6 -6 -5 -6 -6 -6 -6 -6 -6 -6 -6 -6 -5 -5 -5 -5 -5 -6 -6 -6 -6
-9 -8 -8 -7 -7 -6 -6 -6 -6 -5 -6 -6 -6 -6 -6 -6 -6 -6 -6 -6 -6 -6 -6 -6 -6 -5 -5 -5 -5 -6 -6 -6 -6
-10 -9 -8 -8 -8 -7 -7 -7 -6 -6 -6 -8 -7 -7 -6 -7 -6 -6 -6 -6 -6 -6 -6 -6 -6 -6 -5 -5 -6 -6 -6 -6 -6
-10 -9 -9 -8 -8 -8 -8 -8 -7 -8 -7 -8 -7 -7 -7 -6 -7 -6 -6 -6 -5 -6 -6 -6 -6 -6 -6 -6 -6 -6 -6 -6 -6
-11 -10 -9 -8 -8 -8 -8 -8 -8 -8 -7 -8 -7 -7 -7 -6 -6 -7 -6 -6 -6 -6 -6 -5 -5 -6 -6 -6 -6 -6 -6 -6 -5
-12 -11 -10 -9 -8 -8 -7 -7 -7 -8 -8 -7 -7 -7 -7 -6 -7 -7 -6 -6 -6 -6 -6 -5 -5 -5 -6 -6 -6 -6 -6 -6 -5
-13 -12 -10 -9 -9 -9 -8 -8 -7 -8 -8 -8 -7 -7 -7 -7 -7 -7 -7 -7 -6 -6 -6 -5 -5 -5 -5 -6 -6 -6 -6 -5 -5
-13 -12 -12 -10 -10 -10 -8 -8 -7 -8 -7 -8 -8 -8 -8 -7 -7 -7 -7 -7 -6 -6 -6 -5 -6 -5 -4 -5 -5 -6 -6 -6 -5
-13 -12 -12 -11 -11 -11 -10 -9 -8 -8 -8 -8 -7 -9 -8 -8 -8 -8 -8 -8 -7 -7 -6 -6 -6 -6 -6 -5 -6 -6 -6 -6 -6
-13 -13 -12 -12 -11 -11 -11 -9 -8 -8 -8 -8 -8 -7 -8 -9 -8 -8 -8 -9 -9 -8 -7 -7 -7 -6 -6 -6 -6 -6 -7 -6 -6
-15 -13 -13 -13 -11 -10 -10 -11 -10 -9 -8 -8 -8 -8 -7 -7 -8 -8 -9 -9 -8 -8 -8 -8 -7 -7 -7 -7 -7 -7 -7 -7 -7
-16 -14 -13 -13 -13 -11 -10 -10 -10 -10 -9 -9 -8 -8 -9 -8 -8 -8 -8 -8 -9 -9 -8 -8 -8 -8 -7 -7 -7 -7 -7 -7 -7
-16 -15 -14 -12 -12 -12 -11 -10 -10 -11 -11 -10 -9 -9 -9 -8 -8 -7 -8 -7 -9 -9 -9 -9 -8 -8 -8 -8 -8 -7 -8 -8 -8
Height
5869 5871 5879 5884 5887 5888 5891 5895 5901 5904 5904 5906 5912 5916 5919 5922 5925 5926 5928 5933 5934 5938 5938 5941 5943 5946 5947 5949 5950 5951 5951 5952 5953
5866 5870 5878 5882 5885 5887 5888 5893 5899 5900 5902 5904 5909 5913 5916 5921 5924 5926 5928 5930 5934 5937 5939 5941 5942 5946 5947 5949 5950 5951 5952 5954 5955
5867 5868 5872 5876 5881 5885 5887 5891 5896 5898 5901 5904 5906 5911 5915 5919 5922 5925 5928 5930 5932 5935 5938 5940 5942 5945 5946 5948 5950 5952 5953 5954 5955
5862 5862 5864 5869 5873 5876 5881 5886 5891 5893 5897 5901 5907 5911 5915 5917 5920 5923 5926 5929 5932 5935 5937 5939 5941 5943 5945 5947 5948 5950 5952 5954 5955
5855 5859 5860 5861 5865 5869 5875 5878 5882 5887 5890 5896 5900 5905 5910 5914 5916 5921 5924 5926 5929 5933 5935 5937 5939 5940 5943 5945 5947 5949 5951 5953 5954
5848 5850 5851 5852 5855 5859 5866 5871 5876 5881 5885 5888 5890 5896 5903 5907 5912 5916 5921 5924 5926 5929 5932 5935 5938 5939 5940 5942 5945 5947 5949 5951 5953
5839 5841 5842 5846 5848 5853 5858 5862 5869 5873 5878 5883 5887 5891 5896 5900 5905 5910 5915 5919 5922 5925 5928 5931 5934 5937 5938 5939 5942 5944 5946 5947 5950
5833 5835 5838 5841 5843 5847 5851 5855 5863 5868 5871 5876 5880 5886 5892 5894 5897 5902 5907 5911 5915 5919 5923 5926 5929 5932 5934 5937 5939 5941 5943 5944 5947
5824 5827 5829 5832 5837 5842 5845 5851 5855 5858 5864 5869 5875 5883 5886 5889 5892 5894 5900 5905 5908 5911 5916 5920 5924 5927 5931 5934 5936 5937 5938 5940 5942
5813 5818 5821 5823 5828 5833 5838 5842 5847 5849 5855 5860 5867 5874 5879 5881 5886 5890 5894 5898 5902 5905 5909 5913 5918 5922 5925 5928 5931 5933 5934 5936 5937
5800 5805 5809 5814 5818 5824 5829 5828 5837 5842 5849 5852 5858 5865 5869 5875 5879 5883 5887 5891 5895 5900 5901 5905 5910 5915 5918 5922 5925 5927 5929 5931 5932
5785 5792 5798 5803 5809 5814 5820 5825 5831 5836 5841 5847 5855 5858 5861 5866 5870 5874 5879 5884 5888 5893 5896 5898 5902 5906 5910 5915 5919 5921 5922 5924 5927
5770 5778 5784 5790 5798 5806 5812 5817 5823 5828 5833 5838 5843 5849 5855 5861 5864 5867 5872 5875 5877 5883 5889 5891 5893 5897 5902 5906 5910 5912 5915 5917 5920
5750 5762 5770 5776 5783 5792 5799 5804 5813 5818 5825 5828 5833 5842 5849 5854 5858 5863 5865 5868 5869 5872 5878 5883 5886 5888 5893 5897 5902 5905 5908 5910 5914
5728 5740 5753 5759 5767 5778 5785 5791 5801 5807 5816 5822 5828 5835 5841 5845 5849 5854 5857 5861 5861 5864 5868 5872 5877 5883 5884 5890 5894 5897 5900 5903 5906
5711 5723 5735 5744 5752 5760 5768 5777 5785 5794 5803 5810 5816 5825 5829 5835 5840 5844 5849 5853 5854 5855 5860 5862 5867 5875 5881 5884 5886 5889 5891 5893 5896
5693 5704 5717 5726 5733 5744 5751 5758 5767 5778 5788 5796 5803 5814 5820 5824 5829 5832 5837 5840 5846 5848 5852 5857 5861 5867 5872 5875 5877 5880 5881 5883 5884
5668 5682 5695 5705 5715 5725 5734 5745 5750 5760 5772 5778 5789 5800 5809 5813 5817 5819 5824 5830 5835 5842 5846 5850 5853 5858 5860 5864 5869 5871 5869 5870 5872
5650 5658 5671 5684 5697 5709 5717 5726 5736 5748 5757 5764 5773 5785 5795 5801 5803 5807 5810 5816 5825 5833 5837 5842 5845 5848 5851 5855 5859 5861 5861 5861 5864
5632 5641 5648 5660 5677 5689 5697 5708 5717 5731 5741 5753 5758 5769 5783 5787 5793 5791 5794 5802 5814 5821 5828 5832 5836 5841 5844 5846 5851 5853 5854 5853 5854
Wind_Speed
14 32 25 17 18 20 21 22 22 21 24 27 24 22 22 21 18 17 15 15 15 13 13 13 11 9 8 10 9 9 9 8 10
15 24 25 22 19 18 21 24 26 24 25 28 28 24 23 23 20 18 18 18 16 13 11 11 12 12 12 10 9 9 9 8 7
23 28 24 23 23 17 17 24 28 25 25 26 29 30 26 24 24 22 21 20 18 16 15 13 11 12 12 11 9 7 7 7 6
29 29 20 22 31 28 25 23 23 25 26 25 24 27 30 27 25 25 23 20 18 16 15 13 14 13 11 10 11 8 5 5 4
35 32 28 27 23 30 28 29 27 23 23 28 28 28 30 31 30 28 27 24 22 19 17 16 16 14 13 12 11 9 7 4 3
35 39 35 36 31 32 33 33 35 29 27 27 33 35 33 31 32 32 30 28 27 24 22 20 18 18 17 16 13 11 9 6 4
40 40 39 37 34 34 35 38 40 36 32 30 30 34 38 35 33 33 34 32 31 29 26 25 23 22 21 19 17 15 12 10 9
43 44 43 41 39 40 39 39 43 40 41 38 36 33 34 38 39 37 36 37 35 33 31 28 26 25 25 23 21 19 17 16 14
47 51 49 47 46 42 42 40 42 47 45 41 36 37 34 35 43 43 41 39 39 38 35 33 31 28 27 26 24 23 21 20 20
51 52 55 51 51 46 50 39 39 48 43 45 42 41 39 37 36 43 44 43 43 41 38 36 33 31 29 26 25 25 24 24 22
58 54 57 55 54 50 44 25 23 36 40 48 47 44 43 41 37 36 43 45 44 43 42 39 37 35 33 31 28 27 26 26 24
59 61 59 60 57 52 48 39 33 35 33 46 44 43 44 45 41 38 39 40 42 44 45 43 39 39 38 34 32 31 29 28 25
63 61 62 61 62 59 57 51 40 41 36 40 54 53 45 43 44 41 39 38 37 40 46 46 45 43 40 37 37 36 34 33 30
68 68 61 65 66 65 63 58 49 51 43 40 48 50 46 47 44 44 40 40 40 39 42 50 49 47 44 41 39 39 37 36 32
75 74 71 67 68 69 64 61 54 52 48 46 45 47 47 51 49 48 46 43 42 41 41 44 51 51 47 43 40 39 38 37 34
77 77 77 79 70 72 70 62 57 56 54 57 39 36 36 47 52 50 43 41 41 41 42 41 47 50 45 42 42 41 40 40 39
83 80 80 83 83 77 75 72 66 64 64 60 57 46 41 39 41 52 55 45 46 43 43 39 40 45 43 43 44 43 42 42 43
90 83 83 83 91 87 86 75 76 76 75 66 59 55 48 44 55 51 54 54 50 45 40 38 37 40 42 42 43 42 42 43 43
88 90 85 86 85 93 86 82 70 78 75 69 61 56 52 50 55 60 68 67 55 48 42 37 34 37 39 39 43 43 43 42 41
71 85 89 88 86 87 97 91 88 84 71 73 60 64 59 59 49 36 61 64 61 52 47 43 40 38 37 34 34 36 37 36 35
Wind_Direction
185 197 190 198 198 199 192 197 203 199 191 188 193 197 188 183 182 173 166 172 171 175 163 159 148 153 140 122 110 103 103 114 125
178 189 178 230 208 203 194 197 204 195 191 194 195 198 197 188 188 184 180 182 182 185 191 185 156 159 155 138 122 109 104 108 114
185 186 196 189 193 187 212 202 206 204 197 197 198 204 205 201 193 196 197 191 190 191 197 193 178 173 168 156 143 132 119 115 119
204 192 185 200 207 218 204 208 204 207 205 204 208 211 213 211 207 204 209 205 204 199 200 198 195 187 184 183 166 161 147 133 127
203 188 185 198 205 191 197 200 202 195 202 213 207 211 215 215 213 213 212 213 213 210 208 204 204 201 197 204 195 187 177 170 174
207 201 200 203 203 202 204 209 207 204 205 206 209 210 211 214 216 214 215 217 219 215 213 214 211 209 213 215 214 210 195 195 203
204 193 206 214 211 208 215 214 212 207 206 210 221 219 211 209 214 214 214 215 221 223 219 218 217 217 221 223 229 227 222 215 225
213 211 207 219 216 211 214 220 216 220 215 222 220 225 225 213 210 213 213 216 216 220 223 224 226 223 225 228 230 233 232 234 234
215 216 215 222 222 220 216 217 221 220 215 215 221 224 225 223 218 211 213 215 217 217 218 222 227 230 228 231 234 235 234 234 238
214 216 221 224 223 225 225 219 218 209 213 209 214 217 219 220 222 219 216 217 219 219 218 219 222 229 234 235 233 235 237 238 236
214 217 220 226 227 226 230 206 219 214 219 204 207 215 217 220 217 218 219 220 222 223 222 221 221 222 227 233 237 234 235 238 239
222 220 221 219 224 220 221 219 214 213 219 208 215 213 216 221 217 215 219 219 222 224 226 224 223 222 223 226 231 235 237 239 240
223 219 223 219 221 225 222 220 212 213 221 225 218 214 214 223 221 218 221 218 219 226 227 226 224 223 223 224 227 232 235 239 239
224 218 216 220 223 224 224 225 222 220 225 228 216 210 218 218 225 222 223 224 225 225 226 228 227 225 225 226 228 231 236 241 242
225 221 218 220 214 218 218 224 216 221 225 216 222 223 228 222 223 226 229 230 230 228 229 230 229 230 227 228 230 233 237 243 247
227 223 216 222 216 214 210 214 224 226 224 216 225 225 235 228 221 225 225 230 233 232 232 229 228 230 229 229 231 234 235 240 243
231 227 221 217 223 209 214 210 217 227 226 222 225 224 235 230 237 227 223 245 227 232 231 232 228 227 227 227 230 233 236 239 241
239 231 227 224 219 221 227 220 219 223 221 224 232 232 227 233 234 240 236 231 222 224 226 227 224 224 225 228 233 234 234 237 241
240 239 231 228 226 220 226 229 218 217 221 228 233 228 225 248 249 244 235 225 222 219 219 221 220 221 224 227 231 237 239 241 244
244 240 239 232 228 225 223 223 227 220 222 227 229 239 241 239 232 238 229 215 222 214 219 219 221 222 223 225 230 235 240 242 247